www.pogodaiklimat.ru

Погода и климат >> Архив погоды >> Россия >> Ростовская область >> Таганрог


АРХИВ ПОГОДЫ в Таганроге

Время (UTC), дата Ветер
(напр.,м/с)
 
Видим.   Явления Облачность Т
(С)
Тd
(С)
f
(%)
Тe
(С)
Тes
(С)
Комфортность P
(гПа)
Po
(гПа)
Тmin
(С)
Tmax
(С)
R
(мм)
R24
(мм)
S
(см)
12 11.06 СВ 3 20 км 1/0
[Ci fib]
+31.5 +10.1 27 +31 +42 жарко 1012.8 1009.2
15 11.06 СВ 3
{10}
20 км 1/0
[Ci fib]
+30.9 +9.4 26 +30 +33 жарко 1011.7 1008.1 +31.8
18 11.06 С 3 20 км 3/0
[Ci fib]
+27.2 +9.1 32 +27 +27 жарко 1011.5 1007.8
21 11.06 С 4 20 км 3/0
[Ci sp]
+24.8 +6.5 31 +25 +25 комфорт 1011.1 1007.4
00 12.06 С 4 20 км 1/0
[Ci fib]
+23.1 +8.7 40 +24 +24 комфорт 1011.0 1007.3
03 12.06 СВ 3 20 км 9/0
[Cc]
+22.9 +10.8 46 +25 +26 комфорт 1011.7 1008.0 +22.0
06 12.06 СВ 3 20 км 9/0
[Ac trans Ci fib]
+24.7 +12.3 46 +26 +31 жарко 1011.7 1008.0
09 12.06 СВ 3 20 км 4/0
[Ac trans]
+29.4 +10.5 31 +30 +41 жарко 1011.1 1007.5
12 12.06 СВ 4
{10}
20 км 8/0
[Ac trans Ci fib]
+32.0 +9.1 24 +31 +36 жарко 1010.0 1006.4
15 12.06 СВ 3 20 км 9/9 1000 м
[Sc]
+31.1 +9.2 26 +30 +31 жарко 1009.0 1005.4 +32.4
18 12.06 С 4 20 км 8/8 1000 м
[Sc]
+27.3 +9.4 32 +27 +27 жарко 1009.4 1005.7
21 12.06 С 4 20 км 3/0
[Ac trans]
+25.2 +13.3 48 +27 +27 жарко 1009.9 1006.2
00 13.06 С 3 20 км 3/0
[Ac trans]
+24.5 +6.6 32 +25 +25 комфорт 1009.7 1006.0
03 13.06 С 3 20 км 4/3 1000 м
[Sc Ac trans]
+22.3 +9.7 45 +24 +25 комфорт 1010.1 1006.4 +22.2
06 13.06 СВ 3 20 км 3/0
[Ci fib]
+27.5 +12.1 38 +29 +37 жарко 1011.4 1007.8 +22.1
09 13.06 В 2 20 км 9/0
[Ci fib]
+30.2 +14.7 39 +32 +48 жарко 1013.0 1009.3
12 13.06 В 2 20 км 8/0
[Ci fib]
+33.3 +12.9 29 +34 +45 очень
жарко
1013.0 1009.1
15 13.06 Ю 3 20 км 9/3 1000 м
[Cu med, cong Ci]
+31.7 +10.8 28 +32 +33 жарко 1012.1 1008.5
18 13.06 СЗ 3 20 км 8/8 600 м
[Cu Sc]
+27.9 +10.4 34 +28 +28 жарко 1013.3 1009.7
21 13.06 СВ 3
{10}
20 км 3/0
[Cs]
+26.1 +12.6 43 +28 +28 жарко 1014.2 1010.5
00 14.06 СВ 4-10
{10}
20 км ясно +23.7 +13.1 51 +26 +26 жарко 1015.3 1011.5
03 14.06 СВ 3
{10}
20 км 3/0
[Ci fib]
+21.9 +11.2 51 +24 +25 комфорт 1016.7 1012.9 +21.8
06 14.06 В 4
{11}
20 км 3/0
[Ci fib]
+23.1 +5.9 33 +24 +30 комфорт 1018.4 1014.6 +21.8
09 14.06 СВ 3
{10}
20 км 3/0
[Ci fib]
+26.2 +5.8 27 +26 +40 жарко 1018.1 1014.4
12 14.06 СВ 3 20 км 3/0
[Ci fib]
+28.4 +4.9 22 +27 +37 жарко 1017.5 1013.8
15 14.06 В 2 20 км 3/0
[Ci fib]
+27.6 +6.5 26 +27 +30 жарко 1016.4 1012.7 +28.8
18 14.06 СВ 1 20 км 1/0
[Ci fib]
+24.1 +8.3 36 +25 +25 комфорт 1016.7 1013.0
21 14.06 С 3 20 км ясно +21.4 +3.9 32 +22 +22 комфорт 1016.2 1012.5
00 15.06 С 4 20 км ясно +18.8 +3.4 36 +19 +19 тепло 1015.8 1012.0
03 15.06 С 3 20 км 1/0
[Ci fib]
+19.3 +6.1 42 +20 +21 по сезону 1015.1 1011.3 +17.7
06 15.06 СВ 2 20 км 1/0
[Ci fib]
+25.4 +4.2 25 +25 +35 комфорт 1015.4 1011.7
09 15.06 В 2 20 км 3/0
[Ac lent Ci fib]
+28.9 +0.6 16 +26 +43 жарко 1014.7 1011.0
12 15.06 ЮВ 1 20 км 3/0
[Ac trans Ci fib]
+30.7 +5.3 20 +29 +43 жарко 1013.3 1009.7
15 15.06 ЮЗ 1 20 км 3/0
[Cc]
+28.7 +7.6 26 +28 +31 жарко 1011.6 1008.0 +30.9
18 15.06 СЗ 2 20 км 3/0
[Cc]
+25.5 +2.8 23 +24 +24 комфорт 1011.9 1008.3
21 15.06 С 2 20 км ясно +22.2 +4.4 31 +22 +22 комфорт 1011.1 1007.4
00 16.06 С 4 20 км ясно +21.2 +2.8 30 +21 +21 комфорт 1010.5 1006.8
03 16.06 С 3 20 км ясно +21.3 +9.1 46 +23 +24 комфорт 1010.1 1006.4 +19.8
06 16.06 штиль 0 20 км ясно +27.3 +11.1 36 +28 +42 жарко 1010.4 1006.8
09 16.06 ЮВ 2 20 км ясно +29.5 +13.6 38 +31 +50 жарко 1010.1 1006.5
12 16.06 ЮЗ 2 20 км ясно +32.0 +15.3 37 +34 +48 душно 1009.4 1005.8
15 16.06 ЮЗ 2 20 км ясно +30.1 +17.9 48 +35 +37 очень
душно
1007.7 1004.1 +32.1
18 16.06 СЗ 2 20 км 3/3 600 м
[Sc]
+28.2 +5.0 23 +27 +27 жарко 1007.8 1004.2
21 16.06 СВ 3
{10}
н/о н/о +22.7 +15.4 63 +27 +27 душно 1009.5 1005.8
00 17.06 С 4 20 км 1/0
[Ci fib]
+19.2 +15.3 78 +21 +21 комфорт 1010.6 1006.9
03 17.06 С 4 20 км 3/1 600 м
[Sc Ci fib]
+19.1 +15.1 78 +20 +21 по сезону 1011.7 1007.9 +18.6
06 17.06 СВ 3 20 км ясно +24.5 +12.2 46 +26 +35 жарко 1012.9 1009.2
09 17.06 В 3 20 км ясно +27.9 +10.6 34 +28 +44 жарко 1012.9 1009.2
12 17.06 СВ 3 20 км 3/0 1500 м
[Cu hum]
+29.8 +9.5 28 +29 +39 жарко 1012.1 1008.4
15 17.06 СВ 2 20 км 1/0
[Ac cuf]
+29.1 +10.3 31 +29 +32 жарко 1012.0 1008.4 +30.2
18 17.06 СВ 2 20 км ясно +25.1 +8.4 35 +26 +26 жарко 1012.8 1009.1
21 17.06 С 3 20 км ясно +22.6 +11.0 48 +25 +25 комфорт 1013.6 1009.9
00 18.06 С 3 20 км ясно +20.8 +8.6 45 +23 +23 комфорт 1013.4 1009.6
03 18.06 С 3 20 км ясно +21.1 +9.9 49 +23 +23 комфорт 1014.0 1010.3 +20.1
06 18.06 СВ 2 20 км ясно +26.9 +11.1 37 +28 +38 жарко 1014.1 1010.4

 

Местоположение метеостанции Таганрог (Ростовская область, Россия): широта 47.20 долгота 38.90 высота над уровнем моря 32 м.

В архиве по умолчанию представлена погода в Таганроге за последнюю неделю. Архивные данные за месяц целиком и за предыдущие месяцы, начиная с января 2011 года, Вы можете получить, выбрав интересующий диапазон дат из раскрывающегося списка и нажав кнопку "Ввод!".


*Определитесь, кто Вы:
робот инопланетянин человек

Внимание! Время в таблицах - всемирное. Для получения местного времени необходимо прибавить поправку, которая равна 3 ч.

Смотрите также архив погоды в соседних городах и на ближайших метеорологических станциях:

Погода в Маргаритово (Ростовская область, Россия) (30 км)
Погода в Матвеевом Кургане (Ростовская область, Россия) (41 км)
Погода в Ейске (Краснодарский край, Россия) (65 км)
Погода в Ростове-на-Дону (Ростовская область, Россия) (70 км)
Погода в Староминская (Краснодарский край, Россия) (75 км)
Погода в Аэропорту Платов (Ростовская область, Россия) (83 км)
Погода в Кущевской (Краснодарский край, Россия) (92 км)
Погода в Должанке (Краснодарский край, Россия) (106 км)
Погода в Мариуполе (Донецкая область, Украина) (108 км)
Погода в Зерноград (Ростовская область, Россия) (114 км)

Пояснения к столбцам:

Ветер - указаны скорость ветра в м/с - средняя за 10 мин, порывы в срок и между сроками (в фигурных скобках) и направление, откуда дует ветер: С - северный, СВ - северо-восточный, В - восточный, ЮВ - юго-восточный, Ю - южный, ЮЗ - юго-западный, З - западный, СЗ - северо-западный.
Видимость - горизонтальная дальность видимости в метрах или километрах. При видимости от 1 до 10 км при отсутствии осадков обычно наблюдается дымка, при ухудшении видимости до 1 км и менее - туман. В сухую погоду видимость может ухудшаться дымом, пылью или мглою.
Явления - указаны атмосферные явления, наблюдавшиеся в срок или в последний час перед сроком; фигурными скобками обозначены явления, наблюдавшиеся между сроками (за 1-3 часа до срока); квадратными скобками обозначены град или гололедные отложения с указанием их диаметра в мм.
Облачность - указаны через наклонную черту общая и нижняя облачность в баллах и высота нижней границы облаков в метрах; квадратными скобками обозначены формы облаков: Ci - перистые, Cs - перисто-слоистые, Cc - перисто-кучевые, Ac - высококучевые, As - высокослоистые, Sc - слоисто-кучевые, Ns - слоисто-дождевые, Cu - кучевые, Cb - кучево-дождевые. Подробнее классификацию облаков см. в Атласе облаков (PDF).
T - Температура воздуха - температура, измеренная на высоте 2 м над землей.
Td - Температура точки росы - температура, при понижении до которой содержащийся в воздухе водяной пар достигнет насыщения.
f - Относительная влажность воздуха - влажноcть воздуха, измеренная на высоте 2 м над землей.
Te - Эффективная температура - температура, которую ощущает одетый по сезону человек в тени. Характеристика душности погоды. При расчете учитывается влияние влажности воздуха и скорости ветра на теплоощущения человека.
Tes - Эффективная температура на солнце - температура, которую ощущает человек, с поправкой на солнечный нагрев. Характеристика знойности погоды. Зависит от высоты солнца над горизонтом, облачности и скорости ветра. Ночью, в пасмурную погоду, а также при ветре 12 м/с и более поправка равна нулю.
P - Атмосферное давление - приведенное к уровню моря атмосферное давление.
Po - Атмосферное давление - измеренное на уровне метеостанции атмосферное давление.
Tmin - Минимальная температура - минимум температуры воздуха на высоте 2 м над землей.
Tmax - Максимальная температура - максимум температуры воздуха на высоте 2 м над землей.
R - Количество осадков - Количество выпавших осадков за период времени, мм. При наведении курсора мыши на число - период времени, за который выпало указанное количество осадков.
R24 - Количество осадков - Количество выпавших осадков за 24 часа, мм.
S - Снежный покров - Высота снежного покрова, см. При наведении курсора мыши на число - состояние снежного покрова и степень покрытия местности в баллах.